Date String (YYYY-MM-DD hh:mm:ss) UTC,Instrument flags,absolute air pressure of the measurement (hPa),sample flow rate (lpm),inlet stack bypass flow (lpm),air temperature of the measurement (°C),ambient temperature measured by the external sensor (°C),aerosol sample conditioner tube jacket temperature (°C),OPC LED temperature (°C),internal box temperature (°C),relative humidity of the measurement (%),span deviation,mass concentration of particles derived from Lorenz-Mie calculation of OPC scattering (μg/m³),mass concentration of particles derived from Lorenz-Mie calculation of OPC scattering (μg/m³),mass concentration of particles derived from Lorenz-Mie calculation of OPC scattering (μg/m³)
DateTimeUTC,F1_M11,P_M11,Q1_M11,Q2_M11,T1_M11,T2_M11,T3_M11,T4_M11,T5_M11,U1_M11,ZSPAN_M11,X2_M11,X0_M11,X1_M11
2023-09-10 16:00:00,SystemResetWarning,0837.0,4.99,000.00,029.4,027.7,000.0,037.4,030.6,33.8,-001.4,0017.01,0030.06,0014.64
2023-09-10 16:01:00,SystemResetWarning,0837.0,5.01,000.00,029.4,027.7,000.0,037.4,030.6,33.8,-001.5,0017.01,0028.98,0014.64
2023-09-10 16:02:00,SystemResetWarning,0836.9,5.01,000.00,029.4,027.8,000.0,037.4,030.6,33.8,-001.3,0017.01,0029.96,0014.66
2023-09-10 16:03:00,SystemResetWarning,0837.0,5.01,000.00,029.4,027.8,000.0,037.5,030.6,33.6,-001.1,0017.06,0030.36,0014.72
2023-09-10 16:04:00,SystemResetWarning,0837.0,5.00,000.00,029.5,027.9,000.0,037.5,030.7,33.6,-001.1,0017.02,0030.78,0014.76
2023-09-10 16:05:00,SystemResetWarning,0837.0,4.99,000.00,029.5,027.4,000.0,037.5,030.6,33.9,-001.0,0017.04,0031.67,0014.79
2023-09-10 16:06:00,SystemResetWarning,0836.9,4.99,000.00,029.5,025.8,000.0,037.4,030.4,33.6,-000.9,0017.00,0031.38,0014.82
2023-09-10 16:07:00,SystemResetWarning,0836.8,5.00,000.00,029.4,025.1,000.0,037.4,030.3,33.8,-001.0,0017.00,0031.45,0014.83
2023-09-10 16:08:00,SystemResetWarning,0836.8,5.00,000.00,029.3,025.2,000.0,037.4,030.1,34.2,-000.8,0017.05,0032.10,0014.87
2023-09-10 16:09:00,SystemResetWarning,0836.9,5.01,000.00,029.1,025.5,000.0,037.4,030.0,34.3,-000.6,0017.06,0032.14,0014.90
2023-09-10 16:10:00,SystemResetWarning,0836.9,5.00,000.00,029.1,025.8,000.0,037.4,030.0,34.2,-000.6,0017.06,0031.73,0014.92
2023-09-10 16:11:00,SystemResetWarning,0836.9,4.98,000.00,029.1,026.1,000.0,037.4,030.1,34.3,-000.6,0017.10,0032.36,0014.94
2023-09-10 16:12:00,SystemResetWarning,0836.9,5.00,000.00,029.0,026.4,000.0,037.4,030.1,34.4,-000.7,0017.11,0033.08,0014.90
2023-09-10 16:13:00,SystemResetWarning,0836.9,5.01,000.00,029.0,026.7,000.0,037.4,030.2,34.3,-000.8,0017.12,0032.35,0014.91
2023-09-10 16:14:00,SystemResetWarning,0837.0,5.01,000.00,029.0,026.9,000.0,037.4,030.2,34.2,-000.9,0017.09,0031.93,0014.93
2023-09-10 16:15:00,SystemResetWarning,0837.0,5.00,000.00,029.0,027.1,000.0,037.4,030.2,34.2,-000.8,0017.11,0031.74,0014.97
2023-09-10 16:16:00,SystemResetWarning,0837.0,4.99,000.00,029.0,027.2,000.0,037.4,030.3,34.3,-000.8,0017.12,0031.10,0015.01
2023-09-10 16:17:00,SystemResetWarning,0837.0,4.99,000.00,029.0,027.3,000.0,037.4,030.3,34.2,-000.7,0017.14,0031.32,0015.03
2023-09-10 16:18:00,SystemResetWarning,0837.1,5.00,000.00,029.1,027.4,000.0,037.4,030.4,34.1,-000.6,0017.15,0031.90,0015.07
2023-09-10 16:19:00,SystemResetWarning,0837.2,5.00,000.00,029.1,027.5,000.0,037.4,030.4,34.0,-000.6,0017.15,0030.75,0015.09
2023-09-10 16:20:00,SystemResetWarning,0837.2,5.01,000.00,029.1,027.6,000.0,037.4,030.5,33.9,-000.6,0017.13,0030.71,0015.12
2023-09-10 16:21:00,SystemResetWarning,0837.2,5.01,000.00,029.1,027.7,000.0,037.4,030.5,33.8,-000.7,0017.22,0030.88,0015.16
2023-09-10 16:22:00,SystemResetWarning,0837.2,4.99,000.00,029.1,027.8,000.0,037.4,030.5,33.8,-000.7,0017.33,0031.05,0015.25
2023-09-10 16:23:00,SystemResetWarning,0837.2,4.99,000.00,029.2,027.8,000.0,037.5,030.6,33.8,-000.6,0017.36,0031.55,0015.30
2023-09-10 16:24:00,SystemResetWarning,0837.2,5.00,000.00,029.2,027.6,000.0,037.4,030.6,33.7,-000.7,0017.36,0031.12,0015.35
2023-09-10 16:25:00,SystemResetWarning,0837.1,5.00,000.00,029.2,026.0,000.0,037.4,030.4,33.6,-000.8,0017.41,0031.41,0015.36
2023-09-10 16:26:00,SystemResetWarning,0837.0,5.01,000.00,029.1,025.1,000.0,037.3,030.2,33.7,-001.0,0017.50,0032.25,0015.38
2023-09-10 16:27:00,SystemResetWarning,0836.9,5.00,000.00,029.0,025.1,000.0,037.3,030.1,33.9,-001.0,0017.50,0032.24,0015.37
2023-09-10 16:28:00,SystemResetWarning,0836.9,5.01,000.00,028.9,025.4,000.0,037.2,029.9,34.1,-001.1,0017.53,0032.83,0015.40
2023-09-10 16:29:00,SystemResetWarning,0836.9,4.99,000.00,028.8,025.7,000.0,037.3,029.9,34.2,-001.1,0017.57,0032.90,0015.41
2023-09-10 16:30:00,SystemResetWarning,0836.9,5.00,000.00,028.8,026.0,000.0,037.2,030.0,34.3,-001.0,0017.59,0032.64,0015.41
2023-09-10 16:31:00,SystemResetWarning,0837.0,5.00,000.00,028.8,026.3,000.0,037.2,030.0,34.4,-000.9,0017.61,0032.79,0015.40
2023-09-10 16:32:00,SystemResetWarning,0837.1,5.01,000.00,028.8,026.6,000.0,037.2,030.1,34.4,-000.9,0017.56,0032.91,0015.39
2023-09-10 16:33:00,SystemResetWarning,0837.2,5.00,000.00,028.8,026.8,000.0,037.2,030.2,34.5,-000.7,0017.49,0033.28,0015.40
2023-09-10 16:34:00,SystemResetWarning,0837.2,5.00,000.00,028.8,027.0,000.0,037.2,030.2,34.7,-000.7,0017.49,0032.31,0015.38
2023-09-10 16:35:00,SystemResetWarning,0837.2,4.97,000.00,028.8,027.2,000.0,037.2,030.2,35.0,-000.7,0017.48,0031.83,0015.41
2023-09-10 16:36:00,SystemResetWarning,0837.2,5.04,000.00,028.9,027.3,000.0,037.2,030.4,34.8,-000.6,0017.53,0031.59,0015.44
2023-09-10 16:37:00,SystemResetWarning,0837.2,4.97,000.00,029.1,027.4,000.0,037.3,030.5,34.0,-000.4,0017.59,0030.97,0015.46
2023-09-10 16:38:00,SystemResetWarning,0837.2,5.02,000.00,029.2,027.5,000.0,037.3,030.5,33.6,-000.4,0017.64,0030.94,0015.47
2023-09-10 16:39:00,SystemResetWarning,0837.2,5.01,000.00,029.3,027.6,000.0,037.3,030.6,33.6,-000.4,0017.78,0031.78,0015.53
2023-09-10 16:40:00,SystemResetWarning,0837.2,4.99,000.00,029.4,027.7,000.0,037.4,030.6,33.4,-000.7,0017.85,0032.37,0015.58
2023-09-10 16:41:00,SystemResetWarning,0837.2,4.99,000.00,029.4,027.8,000.0,037.4,030.6,33.1,-000.9,0017.85,0032.80,0015.58
2023-09-10 16:42:00,SystemResetWarning,0837.2,5.00,000.00,029.4,027.8,000.0,037.4,030.6,33.0,-001.0,0017.89,0032.43,0015.63
2023-09-10 16:43:00,SystemResetWarning,0837.2,5.00,000.00,029.5,027.9,000.0,037.5,030.7,32.9,-001.0,0017.97,0031.82,0015.71
2023-09-10 16:44:00,SystemResetWarning,0837.2,5.00,000.00,029.5,027.9,000.0,037.5,030.7,33.0,-001.1,0018.08,0031.39,0015.73
2023-09-10 16:45:00,SystemResetWarning,0837.2,4.99,000.00,029.5,026.6,000.0,037.5,030.5,33.0,-001.0,0018.09,0030.95,0015.76
2023-09-10 16:46:00,SystemResetWarning,0837.1,5.01,000.00,029.5,025.5,000.0,037.4,030.3,33.2,-000.9,0018.08,0030.95,0015.75
2023-09-10 16:47:00,SystemResetWarning,0837.1,5.01,000.00,029.4,025.3,000.0,037.4,030.2,33.4,-000.9,0018.08,0031.47,0015.75
2023-09-10 16:48:00,SystemResetWarning,0837.1,5.00,000.00,029.3,025.5,000.0,037.4,030.0,34.1,-000.9,0018.07,0031.90,0015.77
2023-09-10 16:49:00,SystemResetWarning,0837.2,5.00,000.00,029.2,025.8,000.0,037.4,030.0,33.9,-000.8,0018.09,0031.80,0015.81
2023-09-10 16:50:00,SystemResetWarning,0837.2,5.00,000.00,029.1,026.2,000.0,037.4,030.1,33.9,-000.9,0018.11,0031.51,0015.83
2023-09-10 16:51:00,SystemResetWarning,0837.2,4.99,000.00,029.1,026.5,000.0,037.4,030.2,33.9,-000.9,0018.10,0030.26,0015.84
2023-09-10 16:52:00,SystemResetWarning,0837.2,4.99,000.00,029.1,026.7,000.0,037.4,030.2,33.7,-000.7,0018.21,0030.02,0015.87
2023-09-10 16:53:00,SystemResetWarning,0837.2,5.01,000.00,029.1,026.9,000.0,037.4,030.3,33.7,-000.6,0018.14,0030.54,0015.88
2023-09-10 16:54:00,SystemResetWarning,0837.2,5.00,000.00,029.1,027.1,000.0,037.4,030.3,33.7,-000.6,0018.13,0031.05,0015.89
2023-09-10 16:55:00,SystemResetWarning,0837.2,5.00,000.00,029.1,027.3,000.0,037.5,030.4,33.7,-000.8,0018.10,0030.85,0015.88
2023-09-10 16:56:00,SystemResetWarning,0837.2,5.00,000.00,029.2,027.4,000.0,037.5,030.4,33.6,-000.7,0018.13,0030.98,0015.90
2023-09-10 16:57:00,SystemResetWarning,0837.2,4.99,000.00,029.2,027.5,000.0,037.5,030.5,33.5,-000.7,0018.19,0032.22,0015.93
2023-09-10 16:58:00,SystemResetWarning,0837.2,4.99,000.00,029.2,027.6,000.0,037.5,030.5,33.7,-000.7,0018.19,0032.25,0015.94
2023-09-10 16:59:00,SystemResetWarning,0837.2,4.99,000.00,029.2,027.7,000.0,037.5,030.6,33.9,-000.7,0018.21,0031.95,0015.96
